BADR-4 (29526 NORAD) Tracking and Keplerian Element Data

This shows tracking and keplerian element data for the satellite.

Feedback or suggestion? Click here.




ElementValue
Catalog29526
NameBADR-4
Epoch Orbit4947
Epoch Day354.10253131
Epoch Year2025
RAAN83.1092
Inclination1.542
Eccentricity0.0007556
Argument of Perigee210.2262
Mean Anonmoly218.7616
Mean Motion1.00269222
Decay Rate1.68E-06
L11 29526U 06051A 25354.10253131 .00000168 00000+0 00000+0 0 9994
L22 29526 1.5420 83.1092 0007556 210.2262 218.7616 1.00269222 49478



Live tracking and technical data element details for BADR-4 (NORAD 29526). BADR-4 can be tracked NOW for your location showing map with azimuth and elevation plus other details from your city location.







IsCatalogInMostPopularTable: catalog: 29526, numindb: 444
Update: records affected: 1



GetName: 29526 BADR-4

Hit Count: updated at: Sat, 07 Mar 2026 06:54:36 GMT